Terminal Aerodrome Forecast
Issued by NWS Aberdeen, SD

Home | Current Version | Previous Version | Text Only | Print | Product List | Glossary On
Versions: 1 2 3 4 5 6 7 8 9 10 11 12 13 14 15 16 17 18 19 20 21 22 23 24 25 26 27 28 29 30 31 32 33 34 35 36 37 38 39 40 41 42 43 44 45 46 47 48 49 50
255
FTUS43 KABR 290937 AAD
TAFABR
TAF AMD
KABR 290937Z 2910/3006 VRB03KT 3SM BR SCT110
      TEMPO 2910/2913 1SM BR
     FM291600 07007KT P6SM SCT040 BKN200
     FM300100 06007KT P6SM SCT200=

USA.gov is the U.S. government's official web portal to all federal, state and local government web resources and services.